Time[GMT],air_temperature[C](-3m),wind_speed[m/s](-4m),wind_gust[m/s](-4m),wind_direction[degrees](-4m),visibility[m](-3m),barometric_pressure[millibars](-3m)
2005-05-18 04:00,6.1,0.9,1.4,264,2958,1020.89
2005-05-18 05:00,6.1,1.3,1.7,276,2958,1020.58
2005-05-18 06:00,5.9,1.4,1.6,268,2698,1020.28
2005-05-18 07:00,5.8,1.1,1.5,246, 615,1019.78
2005-05-18 08:00,5.4,2.3,3.3,290, 384,1019.60
2005-05-18 09:00,5.4,1.8,2.4,294,1190,1020.03
2005-05-18 10:00,5.1,0.3,1.1,284, 331,1020.09
2005-05-18 11:00,4.4,2.7,3.6,289, 467,1020.21
2005-05-18 12:00,4.6,4.7,6.3,289, 759,1020.46
2005-05-18 13:00,5.2,3.5,4.6,304,2925,1020.83
2005-05-18 14:00,5.9,1.3,2.6,321,2926,1020.77
2005-05-18 15:00,7.0,1.0,2.6,248,2935,1020.52
2005-05-18 16:00,6.1,4.0,4.6,279,1210,1020.58
2005-05-18 17:00,6.5,3.7,4.2,303,2928,1019.97
2005-05-18 18:00,6.2,3.8,4.5,303,2951,1019.48
2005-05-18 19:00,6.3,3.3,4.1,324,2956,1018.80
2005-05-18 20:00,6.5,2.1,2.7,220,2945,1018.61
2005-05-18 21:00,6.5,2.8,3.5,223,2953,1018.49
2005-05-18 22:00,6.4,2.3,3.2,231,2942,1018.30
2005-05-18 23:00,6.6,2.6,3.4,280,2960,1018.49
2005-05-19 00:00,6.5,1.8,2.3,287,2959,1018.24
2005-05-19 01:00,6.5,1.6,2.0,326,2960,1018.67
2005-05-19 02:00,6.5,2.4,3.0,348,2960,1018.92
2005-05-19 03:00,6.4,2.3,2.6,306,2960,1018.61
2005-05-19 04:00,6.6,4.0,4.5,312,2960,1018.37
2005-05-19 05:00,6.4,2.6,3.4,256,2957,1018.24
2005-05-19 06:00,6.4,4.2,4.9,262,2960,1017.63
2005-05-19 07:00,6.3,2.8,3.9,250,2960,1017.44
2005-05-19 08:00,6.3,2.1,2.7,248,2960,1017.01
2005-05-19 09:00,6.4,2.4,2.9,243,2960,1017.01
2005-05-19 10:00,6.4,1.9,2.5,286,2959,1017.19
2005-05-19 11:00,6.6,3.0,3.7,352,2893,1017.32
2005-05-19 12:00,6.0,4.0,4.6,  9,1209,1017.87
2005-05-19 13:00,6.2,3.1,3.6,352,1942,1018.06
2005-05-19 14:00,6.6,3.0,3.9,344,2920,1018.06
2005-05-19 15:00,6.7,3.7,4.4,341,2888,1017.93
2005-05-19 16:00,7.0,3.6,4.1,340,2919,1017.75
2005-05-19 17:00,7.2,2.7,3.3,346,2927,1017.69
2005-05-19 18:00,7.4,3.1,3.7,  5,2884,1017.50
2005-05-19 19:00,7.4,2.2,2.6,330,2878,1017.63
2005-05-19 20:00,7.5,2.0,2.5,324,2895,1017.38
2005-05-19 21:00,7.9,3.1,3.8,315,2865,1017.19
2005-05-19 22:00,7.8,2.4,2.9,308,2840,1017.07
2005-05-19 23:00,7.6,4.1,4.9,300,2868,1017.26
2005-05-20 00:00,7.2,1.8,3.1,308,2916,1017.07
2005-05-20 01:00,7.3,3.1,4.0,294,2960,1017.19
2005-05-20 02:00,7.6,3.9,4.4,284,2960,1017.32
2005-05-20 03:00,7.3,3.7,4.1,306,2960,1016.70
2005-05-20 04:00,7.4,4.3,5.4,291,2960,1016.64
2005-05-20 05:00,7.5,4.2,4.7,302,2960,1016.46
2005-05-20 06:00,7.4,4.7,5.3,285,2960,1016.39
2005-05-20 07:00,7.4,5.2,6.0,318,2960,1016.33
2005-05-20 08:00,7.5,4.6,5.5,336,2960,1016.15
2005-05-20 09:00,7.5,2.9,3.9,327,2960,1016.21
2005-05-20 10:00,8.1,1.5,2.5,351,2393,1016.02
2005-05-20 11:00,8.4,1.0,1.5,  4,2381,1015.84
2005-05-20 12:00,8.2,1.8,2.1,265,2959,1015.47
2005-05-20 13:00,7.8,2.9,3.8,  2,2942,1015.35
2005-05-20 14:00,8.2,1.4,1.9,  1,2955,1015.53
2005-05-20 15:00,10.6,0.3,0.6,195,2951,1015.65
2005-05-20 16:00,9.9,0.0,0.2,,2945,1015.22
2005-05-20 17:00,10.3,0.2,1.1,210,2954,1015.16
2005-05-20 18:00,10.2,0.9,1.4,206,2957,1015.10
2005-05-20 19:00,10.4,2.5,3.2,209,2957,1015.04
2005-05-20 20:00,10.8,2.2,2.7,208,2959,1014.54
2005-05-20 21:00,9.8,3.5,3.8,216,2960,1014.48
2005-05-20 22:00,9.6,3.8,4.3,225,2958,1014.54
2005-05-20 23:00,9.7,2.2,2.9,224,2956,1014.73
2005-05-21 00:00,8.8,2.1,2.4,209,2959,1014.91
2005-05-21 01:00,8.4,0.9,1.8,232,2959,1015.47
2005-05-21 02:00,8.6,1.9,2.2,216,2949,1015.78
2005-05-21 03:00,8.4,0.6,1.5,221,2790,1015.72
2005-05-21 04:00,8.2,0.9,2.0,173,2801,1015.53
2005-05-21 05:00,8.0,0.9,1.7,240,2775,1014.98
2005-05-21 06:00,8.1,1.3,1.9,204,2810,1014.67
2005-05-21 07:00,7.9,1.6,2.1,196,2893,1014.73
2005-05-21 08:00,7.6,1.3,1.7, 20,2798,1014.67
2005-05-21 09:00,7.6,1.9,2.2, 31,2780,1014.91
2005-05-21 10:00,7.7,3.0,3.5, 54,2783,1014.85
2005-05-21 11:00,8.0,5.4,6.2, 73,2954,1014.61
2005-05-21 12:00,7.8,6.4,7.4, 78,2953,1015.10
2005-05-21 13:00,7.7,7.2,8.6, 77,2940,1014.61
2005-05-21 14:00,7.7,7.7,9.4, 78,2941,1014.30
2005-05-21 15:00,7.6,7.5,8.9, 67,2953,1013.81
2005-05-21 16:00,7.2,8.0,9.7, 63,2941,1013.56
2005-05-21 17:00,7.2,8.7,10.1, 53,2959,1013.37
2005-05-21 18:00,7.0,8.8,10.7, 51,2742,1013.25
2005-05-21 19:00,6.9,9.7,11.5, 46,2324,1012.57
2005-05-21 20:00,6.8,10.9,12.9, 38,2581,1011.34
2005-05-21 21:00,6.7,12.1,14.3, 50,1942,1010.54
2005-05-21 22:00,6.9,11.8,14.2, 44,2641,1009.43
2005-05-21 23:00,6.7,10.6,13.0, 40,1841,1009.18
2005-05-22 00:00,6.8,10.3,11.8, 43,2135,1008.01
2005-05-22 01:00,7.0,10.8,12.9, 45,1205,1007.89
2005-05-22 02:00,7.1,13.7,16.4, 47,1836,1005.67
2005-05-22 03:00,6.9,15.1,18.0, 48,1531,1004.01
2005-05-22 04:00,6.8,15.2,18.0, 54,1489,1003.57
2005-05-22 05:00,6.6,14.3,17.4, 59, 861,1002.77
2005-05-22 06:00,6.6,14.9,18.0, 56,1449,1001.91
2005-05-22 07:00,6.5,13.4,16.6, 58,1988,1000.99
2005-05-22 08:00,6.6,13.4,17.0, 65,1990,1000.62
2005-05-22 09:00,6.6,13.1,15.3, 69,1933,1000.74
2005-05-22 10:00,6.9,12.7,15.5, 75,2310,1000.99
2005-05-22 11:00,6.6,12.1,14.8, 78,1785,1001.05
2005-05-22 12:00,6.5,10.6,12.4, 82,1828,1001.36
2005-05-22 13:00,6.3,8.5,11.1, 88,1218,1001.54
2005-05-22 14:00,6.2,8.6,10.4, 99, 940,1001.97
2005-05-22 15:00,6.1,8.8,10.5,102,2057,1002.28
2005-05-22 16:00,6.1,7.8,9.7, 93, 946,1002.71
2005-05-22 17:00,6.1,8.0,10.0, 95, 857,1003.14
2005-05-22 18:00,6.2,7.4,8.8,101, 854,1003.33
2005-05-22 19:00,6.1,8.1,9.6,100, 803,1003.94
2005-05-22 20:00,6.2,8.0,9.2,108,1028,1004.68
2005-05-22 21:00,6.1,7.4,8.7,110,1000,1004.68
2005-05-22 22:00,6.1,7.2,8.3,110,1008,1005.48
2005-05-22 23:00,6.1,6.4,7.8,118,1056,1006.04
2005-05-23 00:00,6.1,6.7,7.8,123,1759,1006.53
2005-05-23 01:00,6.1,6.3,8.1,110,2674,1007.03
2005-05-23 02:00,6.0,5.5,6.7,105,2656,1007.09
2005-05-23 03:00,5.9,5.4,6.5,100,2365,1006.90
2005-05-23 04:00,5.9,4.4,5.8,101,2635,1006.72
2005-05-23 05:00,5.8,3.9,5.0, 95,1578,1006.59
2005-05-23 06:00,5.7,2.4,3.2, 84,1818,1006.22
2005-05-23 07:00,5.5,2.4,3.1, 69,2686,1006.22
2005-05-23 08:00,5.6,1.6,2.2, 57,2536,1005.67
2005-05-23 09:00,5.7,2.1,2.7, 32,1947,1005.55
2005-05-23 10:00,6.1,4.4,5.4, 24,1839,1004.87
2005-05-23 11:00,6.3,6.7,7.6, 24,1719,1004.50
2005-05-23 12:00,6.3,5.1,6.6, 23,1665,1003.64
2005-05-23 13:00,6.9,8.4,10.0, 59,2173,1002.65
2005-05-23 14:00,7.1,11.5,13.6, 61,1730,1001.73
2005-05-23 15:00,6.9,13.3,16.4, 61, 524,1001.48
2005-05-23 16:00,7.0,12.7,15.0, 54,2199,1001.23
2005-05-23 17:00,6.9,13.6,16.5, 51,1657,1000.99
2005-05-23 18:00,6.9,12.8,14.7, 53,1699,1000.74
2005-05-23 19:00,7.2,11.6,13.6, 55,2390,1000.86
2005-05-23 20:00,7.3,15.7,19.0, 67,2062,999.75
2005-05-23 21:00,7.0,17.0,20.2, 82,1600,999.81
2005-05-23 22:00,6.8,18.0,21.0, 90,1439,999.69
2005-05-23 23:00,6.7,15.8,19.2,105,1924,1002.65
2005-05-24 00:00,6.4,14.3,18.1, 96,1905,1005.42
2005-05-24 01:00,6.3,12.9,16.7, 98,1889,1006.96
2005-05-24 02:00,6.3,12.4,15.6, 98,1934,1008.26
2005-05-24 03:00,6.1,11.7,14.8, 94,2250,1008.69
2005-05-24 04:00,6.2,11.5,13.8, 89,2475,1009.06
2005-05-24 05:00,6.3,12.4,15.0, 88,2569,1008.87
2005-05-24 06:00,6.3,11.3,14.0, 86,2609,1009.00
2005-05-24 07:00,6.0,11.3,14.2, 85,2492,1009.68
2005-05-24 08:00,5.7,12.0,14.3, 78,2241,1010.05
2005-05-24 09:00,5.5,11.3,13.6, 74,2048,1010.29
2005-05-24 10:00,5.4,11.4,13.8, 72,1443,1010.97
2005-05-24 11:00,5.3,10.6,12.1, 67,2081,1011.34
2005-05-24 12:00,5.3,10.1,11.9, 68,2042,1012.14
2005-05-24 13:00,5.2,10.5,13.3, 65,2401,1011.83
2005-05-24 14:00,5.4,10.4,12.1, 61,2018,1012.26
2005-05-24 15:00,5.5,10.1,11.8, 52,2554,1012.14
2005-05-24 16:00,5.6,10.3,12.7, 56,2367,1012.26
2005-05-24 17:00,5.5,9.7,11.9, 51,1615,1012.88
2005-05-24 18:00,5.6,10.5,12.5, 51,1622,1012.76
2005-05-24 19:00,5.6,10.9,13.2, 49, 998,1012.82
2005-05-24 20:00,6.0,11.8,14.3, 53,1468,1012.63
2005-05-24 21:00,6.0,12.4,14.4, 53,2157,1012.33
2005-05-24 22:00,6.1,11.7,13.8, 50,1675,1012.39
2005-05-24 23:00,6.0,11.0,12.7, 45,1144,1012.39
2005-05-25 00:00,6.6,13.5,16.2, 60, 774,1012.76
2005-05-25 01:00,6.3,13.7,16.9, 53,1964,1012.20
2005-05-25 02:00,6.1,13.3,16.5, 57,1182,1012.51
2005-05-25 03:00,5.9,13.2,16.5, 57,1163,1012.08
2005-05-25 04:00,5.7,13.6,15.7, 52,1463,1011.46
2005-05-25 05:00,5.6,14.1,17.1, 50,1132,1011.28
2005-05-25 06:00,5.7,13.2,15.4, 50,1373,1011.09
2005-05-25 07:00,5.7,13.5,16.8, 51,1568,1010.54
2005-05-25 08:00,5.6,14.7,17.2, 48,1642,1009.80
2005-05-25 09:00,5.4,13.9,17.0, 48, 794,1010.54
2005-05-25 10:00,5.5,12.8,15.7, 50,1319,1011.28
2005-05-25 11:00,5.6,12.6,16.0, 53,2040,1011.46
2005-05-25 12:00,5.9,11.5,14.2, 61,1832,1012.57
2005-05-25 13:00,5.8,12.3,15.1, 57,1680,1012.63
2005-05-25 14:00,5.7,11.5,13.7, 51,2042,1012.63
2005-05-25 15:00,5.7,11.4,14.3, 49,1642,1012.63
2005-05-25 16:00,5.8,11.6,14.0, 49,1494,1012.88
2005-05-25 17:00,5.8,11.1,13.8, 50,1561,1012.82
2005-05-25 18:00,5.9,11.7,14.5, 50,1776,1012.45
2005-05-25 19:00,5.9,12.4,15.4, 47,1348,1011.83
2005-05-25 20:00,5.8,11.9,14.6, 48,1182,1011.83
2005-05-25 21:00,6.3,12.4,15.1, 50,1745,1010.91
2005-05-25 22:00,6.4,12.8,16.7, 48,1686,1010.35
2005-05-25 23:00,6.7,12.7,15.8, 52,1605,1010.35
2005-05-26 00:00,6.8,12.8,16.0, 52,1180,1009.68
2005-05-26 01:00,6.7,12.0,14.0, 54,1440,1009.24
2005-05-26 02:00,7.0,13.0,16.5, 57,1071,1008.69
2005-05-26 03:00,6.8,13.5,17.0, 60, 803,1007.77
2005-05-26 04:00,7.0,13.0,16.1, 70,1703,1007.15
2005-05-26 05:00,7.1,11.2,13.7, 75,2551,1007.03
2005-05-26 06:00,6.8,10.8,13.2, 68,2378,1006.53
2005-05-26 07:00,7.0,10.9,14.0, 74,1538,1006.41
2005-05-26 08:00,6.9,10.9,13.0, 78,1656,1006.41
2005-05-26 09:00,6.8,9.7,11.9, 76,1609,1006.66
2005-05-26 10:00,6.5,7.2,9.5, 63,1404,1007.09
2005-05-26 11:00,6.5,8.5,10.4, 61,1592,1006.35
2005-05-26 12:00,6.7,9.1,11.2, 66,2153,1006.35
2005-05-26 13:00,6.4,7.5,9.2, 51,1565,1006.04
2005-05-26 14:00,6.7,8.4,9.8, 51,1580,1005.24
2005-05-26 15:00,6.8,8.8,10.5, 57,1886,1004.44
2005-05-26 16:00,6.5,9.8,11.7, 49,1223,1003.45
2005-05-26 17:00,6.5,10.4,11.9, 52,1990,1002.53
2005-05-26 18:00,6.3,8.3,10.0, 52,1858,1002.28
2005-05-26 19:00,6.4,9.8,12.4, 42,2256,1001.17
2005-05-26 20:00,6.7,8.4,10.6, 57,2532,1001.05
2005-05-26 21:00,6.4,6.0,7.2, 42,2074,1001.17
2005-05-26 22:00,6.4,6.4,7.4, 48,1732,1000.92
2005-05-26 23:00,6.3,5.4,6.7, 53, 429,1001.36
2005-05-27 00:00,6.2,5.1,6.2, 49, 255,1001.42
2005-05-27 01:00,5.8,2.9,4.1, 94, 292,1001.85
2005-05-27 02:00,5.6,1.9,2.7, 41, 380,1001.97
2005-05-27 03:00,5.6,2.9,4.5, 51, 285,1002.09
2005-05-27 04:00,5.6,2.6,3.9, 43, 436,1002.28
2005-05-27 05:00,5.6,4.0,5.3, 53, 185,1001.85
2005-05-27 06:00,5.6,4.8,6.2, 53, 247,1001.54
2005-05-27 07:00,5.7,4.5,5.4, 64, 309,1001.54
2005-05-27 08:00,5.6,3.6,4.3, 57, 482,1001.73
2005-05-27 09:00,5.8,4.6,5.3, 41, 765,1002.46
2005-05-27 10:00,5.9,4.3,5.1, 31, 516,1002.96
2005-05-27 11:00,5.9,3.3,4.0, 35, 401,1003.33
2005-05-27 12:00,5.9,3.0,3.6, 37, 375,1003.64
2005-05-27 13:00,5.8,3.6,4.5,  8,1456,1003.45
2005-05-27 14:00,5.9,4.5,5.6, 16,2923,1003.64
2005-05-27 15:00,6.2,3.8,4.8, 21,2799,1004.01
2005-05-27 16:00,6.3,3.6,4.4, 10,1907,1004.38
2005-05-27 17:00,6.4,2.2,2.9,359, 324,1004.68
2005-05-27 18:00,6.7,4.0,4.8,337, 507,1004.56
2005-05-27 19:00,7.2,4.4,5.6,330,2840,1004.75
2005-05-27 20:00,7.4,4.3,5.4,335,2932,1005.11
2005-05-27 21:00,6.9,2.8,3.5,312,2959,1005.55
2005-05-27 22:00,6.8,2.2,3.2,302,2951,1005.67
2005-05-27 23:00,6.6,2.8,3.3,277,2959,1006.29
2005-05-28 00:00,6.8,3.8,4.5,277,2951,1006.66
2005-05-28 01:00,7.0,4.6,5.4,276,2870,1007.33
2005-05-28 02:00,6.9,4.3,5.8,276,2959,1007.83
2005-05-28 03:00,7.1,4.9,5.6,260,2950,1007.89
2005-05-28 04:00,6.9,2.5,3.7,274,2960,1007.46
2005-05-28 05:00,6.8,3.4,4.3,264,2960,1007.09
2005-05-28 06:00,6.7,3.5,4.4,256,2960,1007.15
2005-05-28 07:00,6.5,2.3,3.0,260,2960,1006.78
2005-05-28 08:00,6.5,1.4,2.1,284,2655,1006.35
2005-05-28 09:00,6.8,1.5,2.1,341,2878,1006.41
2005-05-28 10:00,6.9,0.2,0.7, 66,2948,1006.53
2005-05-28 11:00,6.5,2.4,2.9,214, 524,1007.15
2005-05-28 12:00,6.5,0.8,2.7,232, 294,1007.46
2005-05-28 13:00,6.7,2.0,2.4,237,1806,1007.77
2005-05-28 14:00,7.0,1.2,1.6,253,1075,1007.64
2005-05-28 15:00,7.5,2.4,2.9,238,1537,1007.52
2005-05-28 16:00,7.3,3.2,3.8,269, 342,1007.77
2005-05-28 17:00,6.9,4.3,5.1,269, 699,1008.01
2005-05-28 18:00,7.0,4.0,4.9,276,2005,1007.95
2005-05-28 19:00,7.2,2.7,3.4,265, 175,1008.01
2005-05-28 20:00,7.5,2.1,2.9,234,2818,1007.89
2005-05-28 21:00,7.8,3.9,4.7,238,2954,1008.26
2005-05-28 22:00,8.3,2.6,3.1,252,2958,1008.20
2005-05-28 23:00,8.3,2.2,2.8,231,2960,1008.44
2005-05-29 00:00,7.5,1.1,1.8,226,2960,1008.63
2005-05-29 01:00,7.6,2.8,3.3,211,2960,1009.18
2005-05-29 02:00,7.3,1.3,2.3,171,2960,1009.24
2005-05-29 03:00,7.4,1.6,2.0,157,2960,1008.63
2005-05-29 04:00,7.6,2.4,3.2,182,2960,1008.50
2005-05-29 05:00,7.4,1.6,2.1,149,2960,1008.01
2005-05-29 06:00,7.6,2.9,3.3,159,2960,1007.52
2005-05-29 07:00,7.1,2.0,2.8,146,2959,1007.33
2005-05-29 08:00,7.0,1.5,1.9,124,2948,1007.15
2005-05-29 09:00,7.2,2.6,3.5,145,2888,1007.33
2005-05-29 10:00,7.3,1.6,2.1, 83,2837,1007.21
2005-05-29 11:00,7.6,1.8,2.2, 82,2839,1007.46
2005-05-29 12:00,7.1,2.6,3.2, 99,2816,1007.83
2005-05-29 13:00,6.3,2.1,2.7,107,2007,1008.32
2005-05-29 14:00,6.4,2.4,3.3,100, 295,1008.20
2005-05-29 15:00,6.7,2.1,3.0,163, 195,1008.57
2005-05-29 16:00,7.0,1.6,2.2, 66, 131,1008.57
2005-05-29 17:00,7.2,2.2,2.9, 55, 409,1008.32
2005-05-29 18:00,7.8,3.1,3.7,104, 464,1007.70
2005-05-29 19:00,8.1,1.7,2.2,127, 128,1007.52
2005-05-29 20:00,8.3,1.5,1.9,137, 137,1007.46
2005-05-29 21:00,7.6,1.1,1.4, 74, 138,1007.77
2005-05-29 22:00,7.2,2.3,3.0, 64, 193,1007.77
2005-05-29 23:00,6.9,2.7,3.6, 74, 435,1008.38
2005-05-30 00:00,6.8,2.4,3.3, 87, 129,1008.69
2005-05-30 01:00,6.6,2.2,2.9,142, 567,1009.18
2005-05-30 02:00,6.9,0.4,1.6,202, 191,1009.49
2005-05-30 03:00,6.9,0.0,0.3,, 315,1009.61
2005-05-30 04:00,6.9,0.0,0.1,, 550,1009.31
2005-05-30 05:00,6.9,0.9,1.3,299, 323,1009.06
2005-05-30 06:00,7.0,0.9,1.3,310, 319,1009.00
2005-05-30 07:00,7.0,0.0,0.4,, 351,1008.87
2005-05-30 08:00,7.0,2.0,2.8, 59, 473,1008.75
2005-05-30 09:00,7.1,1.4,2.0, 42, 351,1009.37
2005-05-30 10:00,7.2,0.0,0.7,, 574,1009.92
2005-05-30 11:00,7.1,0.4,0.9,165,1825,1010.48
2005-05-30 12:00,7.4,0.0,0.4,,1722,1011.46
2005-05-30 13:00,7.4,,,,1578,1011.46
2005-05-30 14:00,7.4,2.0,2.4, 99,1573,1011.89
2005-05-30 15:00,7.7,1.4,1.9,101,2011,1012.14
2005-05-30 16:00,8.2,0.6,1.4,185,2524,1012.26
2005-05-30 17:00,8.0,0.0,0.5,,2313,1012.20
2005-05-30 18:00,8.3,0.8,1.1,143,2588,1011.89
2005-05-30 19:00,8.1,0.9,1.7, 99,2516,1011.96
2005-05-30 20:00,8.0,1.7,2.3, 91,2403,1012.14
2005-05-30 21:00,7.6,3.1,3.7,110,2151,1012.51
2005-05-30 22:00,7.3,2.9,3.7,120,1959,1012.88
2005-05-30 23:00,7.3,3.0,3.6,113,2479,1013.37
2005-05-31 00:00,7.3,3.3,4.0,114,2629,1013.93
2005-05-31 01:00,6.8,3.9,4.5, 98,2078,1014.61
2005-05-31 02:00,6.7,4.9,5.7,106,2226,1014.67
2005-05-31 03:00,6.6,4.8,6.0,112,1838,1014.54
2005-05-31 04:00,6.6,4.7,5.8,120,1194,1014.79
2005-05-31 05:00,6.7,4.1,4.8,135, 709,1014.61
2005-05-31 06:00,6.6,4.1,4.6,104, 655,1014.85
2005-05-31 07:00,6.4,5.1,6.1,101,1877,1015.10
2005-05-31 08:00,6.2,5.3,6.3,104,2890,1015.65
2005-05-31 09:00,6.3,5.6,6.8,102,2913,1015.90
2005-05-31 10:00,6.4,5.7,6.9, 94,2929,1016.76
2005-05-31 11:00,6.4,5.4,6.4, 85,2943,1017.13
2005-05-31 12:00,6.6,4.7,5.7, 85,2941,1018.00
2005-05-31 13:00,6.8,5.4,6.2, 86,2955,1018.43
2005-05-31 14:00,6.9,5.5,6.5, 81,2919,1019.29
2005-05-31 15:00,6.7,5.3,6.1, 89,2846,1019.66
2005-05-31 16:00,6.9,5.3,6.4, 87,2854,1019.91
2005-05-31 17:00,7.1,5.1,6.2, 88,2937,1020.21
2005-05-31 18:00,7.2,5.4,6.5, 85,2937,1020.15
2005-05-31 19:00,7.2,5.4,6.5, 85,2949,1020.46
2005-05-31 20:00,7.2,4.7,5.6, 78,2944,1020.28
2005-05-31 21:00,7.3,4.5,5.3, 49,2941,1020.28
2005-05-31 22:00,7.3,4.5,5.3, 41,2957,1020.15
2005-05-31 23:00,7.3,3.5,4.3, 61,2959,1020.52
2005-06-01 00:00,7.2,2.6,3.1,100,2780,1020.83
2005-06-01 01:00,6.9,2.2,2.9,114,2326,1021.63
2005-06-01 02:00,7.0,1.2,1.7, 50,1293,1022.43
2005-06-01 03:00,7.1,1.3,1.7, 50,1417,1022.56
2005-06-01 04:00,7.1,1.0,1.5, 49, 857,1022.31
2005-06-01 05:00,7.2,1.1,1.3,358,1626,1021.94
2005-06-01 06:00,7.2,1.0,1.6,329, 531,1021.88
2005-06-01 07:00,7.1,2.2,2.7,352,2960,1021.82
2005-06-01 08:00,7.2,0.9,1.8, 27,2960,1022.06
2005-06-01 09:00,7.2,2.5,3.1,357,2937,1022.25
2005-06-01 10:00,7.3,2.2,2.9,349,2941,1022.99
2005-06-01 11:00,7.4,1.7,2.2,343,2912,1023.17
2005-06-01 12:00,7.7,2.2,2.7,298,2955,1023.48
2005-06-01 13:00,8.1,1.6,2.2,319,2959,1023.85
2005-06-01 14:00,8.4,1.1,1.7, 28,2956,1024.10
2005-06-01 15:00,9.0,1.0,1.4, 38,2954,1024.47
2005-06-01 16:00,10.0,0.9,1.4,270,2947,1024.84
2005-06-01 17:00,10.1,1.4,2.0,267,2959,1024.59
2005-06-01 18:00,9.5,3.1,3.5,276,2960,1024.47
2005-06-01 19:00,9.2,2.8,3.3,280,2959,1024.16
2005-06-01 20:00,9.4,3.6,4.4,280,2958,1024.04
2005-06-01 21:00,9.1,3.2,3.7,288,2960,1023.60
2005-06-01 22:00,9.2,2.2,2.6,282,2959,1023.67
2005-06-01 23:00,9.3,3.0,3.3,265,2959,1023.97
2005-06-02 00:00,8.9,3.5,3.9,258,2960,1024.04
2005-06-02 01:00,8.7,3.2,3.7,252,2959,1024.71
2005-06-02 02:00,8.6,2.7,3.3,267,2960,1025.21
2005-06-02 03:00,8.8,3.5,4.0,253,2960,1025.08
2005-06-02 04:00,8.6,3.2,4.2,256,2960,1025.08
2005-06-02 05:00,8.8,4.3,4.9,244,2960,1024.78
2005-06-02 06:00,8.3,3.3,3.7,244,2960,1024.65
2005-06-02 07:00,8.2,3.2,3.7,232,2960,1024.34
2005-06-02 08:00,8.2,3.6,4.0,226,2960,1024.28
2005-06-02 09:00,8.1,3.1,3.5,223,2874,1024.34
2005-06-02 10:00,8.4,3.9,4.5,224,2805,1024.34
2005-06-02 11:00,8.3,4.0,4.6,218,2727,1024.47
2005-06-02 12:00,7.3,6.6,7.6,242, 624,1024.71
2005-06-02 13:00,7.4,6.2,7.4,243, 328,1024.90
2005-06-02 14:00,7.3,6.4,7.5,239, 628,1024.78
2005-06-02 15:00,7.7,5.3,6.3,244, 603,1024.90
2005-06-02 16:00,7.8,5.1,6.3,247, 655,1024.90
2005-06-02 17:00,7.8,5.9,6.9,232, 640,1024.41
2005-06-02 18:00,7.9,5.4,6.9,226, 658,1024.04
2005-06-02 19:00,7.9,6.1,7.8,226, 595,1023.67
2005-06-02 20:00,7.8,5.5,6.6,227, 517,1023.42
2005-06-02 21:00,7.6,8.4,9.6,218, 517,1022.19
2005-06-02 22:00,7.5,6.4,7.7,234, 470,1022.25
2005-06-02 23:00,7.4,6.4,7.6,217, 446,1021.94
2005-06-03 00:00,7.2,7.1,8.2,212, 483,1021.45
2005-06-03 01:00,7.1,7.0,8.5,217, 496,1022.13
2005-06-03 02:00,7.0,7.6,9.3,211, 861,1022.00
2005-06-03 03:00,6.9,7.0,8.5,215, 872,1022.00
2005-06-03 04:00,7.2,6.3,7.4,219, 614,1022.19
2005-06-03 05:00,7.3,7.3,8.9,220, 664,1021.94
2005-06-03 06:00,7.1,7.2,9.3,214, 714,1021.45
2005-06-03 07:00,7.6,7.9,9.5,211, 556,1020.89
2005-06-03 08:00,7.7,8.4,9.8,220, 491,1020.95
2005-06-03 09:00,7.2,7.9,9.5,219, 438,1021.14
2005-06-03 10:00,7.2,7.1,8.2,228,1017,1021.02
2005-06-03 11:00,7.2,6.3,7.5,218,1021,1020.71
2005-06-03 12:00,7.3,6.2,7.5,216, 834,1020.58
2005-06-03 13:00,7.3,7.7,9.2,216,1039,1020.21
2005-06-03 14:00,7.4,6.8,8.3,228,1343,1020.40
2005-06-03 15:00,7.8,6.8,8.9,231,1368,1020.21
2005-06-03 16:00,7.8,7.2,8.3,220, 733,1019.66
2005-06-03 17:00,8.0,6.6,8.2,219,1053,1019.23
2005-06-03 18:00,8.1,5.8,7.1,221,1316,1018.74
2005-06-03 19:00,8.6,4.5,5.1,215,2903,1018.12
2005-06-03 20:00,9.3,6.2,6.9,212,2862,1017.32
2005-06-03 21:00,9.4,6.8,7.9,214,2807,1016.83
2005-06-03 22:00,8.9,6.7,7.8,216, 660,1016.21
2005-06-03 23:00,9.0,6.8,8.0,219, 634,1016.02
2005-06-04 00:00,9.3,6.9,7.9,211,2695,1015.41
2005-06-04 01:00,9.3,6.9,8.0,208,2720,1015.28
2005-06-04 02:00,9.7,6.5,7.7,219,2803,1015.41
2005-06-04 03:00,9.8,6.4,7.3,217,2813,1014.98
2005-06-04 04:00,9.9,6.9,8.0,219,2843,1014.79
2005-06-04 05:00,10.1,6.8,8.0,222,2860,1014.24
2005-06-04 06:00,10.0,6.9,7.8,226,2883,1013.68
2005-06-04 07:00,10.2,6.9,8.0,221,2922,1013.19
2005-06-04 08:00,9.9,6.6,7.4,221,2918,1012.94
2005-06-04 09:00,10.0,6.6,7.5,223,2929,1013.00
2005-06-04 10:00,9.4,5.0,5.8,222,2844,1013.25
2005-06-04 11:00,9.3,5.1,5.8,212,2640,1012.94
2005-06-04 12:00,9.6,4.1,4.7,225,2667,1013.00
2005-06-04 13:00,9.4,3.7,4.5,218,2635,1013.00
2005-06-04 14:00,9.4,4.9,5.4,207,2875,1012.08
2005-06-04 15:00,9.6,3.7,4.4,217,2860,1012.02
2005-06-04 16:00,9.3,3.3,3.9,199,2906,1012.20
2005-06-04 17:00,8.9,4.0,4.8,201,2489,1011.89
2005-06-04 18:00,8.8,3.5,4.1,197, 753,1011.71
2005-06-04 19:00,9.1,3.5,4.3,202, 358,1011.46
2005-06-04 20:00,9.3,4.6,5.3,193, 901,1011.22
2005-06-04 21:00,9.5,4.2,4.7,201, 512,1010.91
2005-06-04 22:00,9.5,4.4,5.0,196, 677,1010.42
2005-06-04 23:00,9.4,4.1,4.6,195, 977,1010.23
2005-06-05 00:00,9.4,3.5,3.9,210, 782,1010.42
2005-06-05 01:00,9.4,3.3,3.8,192, 788,1010.66
2005-06-05 02:00,9.6,5.1,5.8,178,1243,1010.42
2005-06-05 03:00,9.2,2.5,3.8,204,1213,1010.85
2005-06-05 04:00,9.3,2.7,3.3,180, 764,1010.91
2005-06-05 05:00,9.2,2.9,3.5,183,1079,1010.42
2005-06-05 06:00,9.4,2.8,3.3,233,1078,1010.66
2005-06-05 07:00,9.5,1.3,2.2,190, 966,1011.09
2005-06-05 08:00,9.0,3.2,3.8,189,1039,1010.91
2005-06-05 09:00,9.0,3.8,4.5,187,1159,1011.09
2005-06-05 10:00,9.3,5.1,5.9,191,1394,1010.79
2005-06-05 11:00,9.4,4.2,4.8,214, 818,1011.09
2005-06-05 12:00,9.2,2.2,2.7,270, 675,1012.26
2005-06-05 13:00,9.5,2.0,2.5,212, 499,1012.33
2005-06-05 14:00,9.3,2.5,6.3,  2, 630,1013.62
2005-06-05 15:00,9.5,0.3,2.4, 62, 568,1013.56
2005-06-05 16:00,10.0,0.8,1.5, 46, 649,1013.50
2005-06-05 17:00,10.0,1.4,2.0, 94,2135,1013.25
2005-06-05 18:00,10.2,0.6,1.2,103, 113,1013.50
2005-06-05 19:00,10.6,0.6,0.9,106, 183,1013.50
2005-06-05 20:00,10.4,1.8,2.4,104, 222,1013.93
2005-06-05 21:00,10.7,0.4,1.7, 24, 435,1014.48
2005-06-05 22:00,10.1,1.4,2.1, 94, 461,1014.61
2005-06-05 23:00,9.6,5.1,6.1, 47,1207,1015.84
2005-06-06 00:00,9.3,5.8,7.1, 67,1013,1016.09
2005-06-06 01:00,9.2,6.9,8.2, 73,2777,1016.70
2005-06-06 02:00,9.1,5.2,6.6, 61,1092,1017.13
2005-06-06 03:00,8.8,6.3,7.5, 74,1664,1017.50
2005-06-06 04:00,8.2,8.2,10.2,109,2799,1017.50
2005-06-06 05:00,8.1,8.0,9.4,105,2516,1018.24
2005-06-06 06:00,8.4,7.1,8.1,110,2876,1018.86
2005-06-06 07:00,8.1,6.7,7.9,108,2722,1019.97
2005-06-06 08:00,8.1,8.4,10.5,102,2651,1019.35
2005-06-06 09:00,8.2,7.4,9.2,103,2942,1020.58
2005-06-06 10:00,8.0,8.3,9.6,113,2884,1020.77
2005-06-06 11:00,8.4,8.3,9.9,129,2959,1021.02
2005-06-06 12:00,8.4,9.3,10.7,122,2959,1020.89
2005-06-06 13:00,8.2,8.0,9.5,127,2954,1020.83
2005-06-06 14:00,8.5,8.9,10.7,114,2919,1020.46
2005-06-06 15:00,8.2,8.4,10.1,122,2930,1020.40
2005-06-06 16:00,8.4,7.8,9.1,118,2914,1019.66
2005-06-06 17:00,8.5,6.2,7.6,128,2894,1019.41
2005-06-06 18:00,8.6,6.7,7.9,128,2900,1019.04
2005-06-06 19:00,8.6,7.7,9.0,129,2861,1018.30
2005-06-06 20:00,9.0,8.2,9.8,138,2819,1017.26
2005-06-06 21:00,9.2,9.2,10.6,150,2557,1016.46
2005-06-06 22:00,9.3,9.2,10.5,150,1746,1015.47
2005-06-06 23:00,9.5,8.6,9.9,166,1097,1015.22
2005-06-07 00:00,9.7,9.1,11.0,172, 820,1014.48
2005-06-07 01:00,9.7,9.0,10.1,169, 709,1014.30
2005-06-07 02:00,10.3,9.0,11.8,185, 624,1013.07
2005-06-07 03:00,10.2,9.4,11.0,176, 434,1011.65
2005-06-07 04:00,10.2,8.3,9.9,193, 259,1012.02
2005-06-07 05:00,10.0,8.5,9.7,197, 490,1011.83
2005-06-07 06:00,10.4,8.8,12.3,200, 334,1011.59
2005-06-07 07:00,10.4,8.5,10.0,204, 541,1010.91
2005-06-07 08:00,10.1,8.7,10.1,203, 373,1010.54
2005-06-07 09:00,9.8,6.9,8.5,206, 451,1010.66
2005-06-07 10:00,10.6,8.6,10.2,204,1675,1009.98
2005-06-07 11:00,10.4,7.2,8.5,202, 252,1009.80
2005-06-07 12:00,10.7,6.8,7.6,218, 271,1009.18
2005-06-07 13:00,10.4,8.1,9.1,217, 395,1008.94
2005-06-07 14:00,10.1,8.4,10.0,215, 401,1008.44
2005-06-07 15:00,10.0,8.1,9.7,219, 308,1008.50
2005-06-07 16:00,9.9,7.8,10.5,220, 384,1007.77
2005-06-07 17:00,9.8,7.2,9.3,211, 324,1007.15
2005-06-07 18:00,10.0,6.6,7.7,219, 302,1006.96
2005-06-07 19:00,10.0,8.3,10.1,217, 896,1006.41
2005-06-07 20:00,10.2,7.7,9.3,214,2253,1006.22
2005-06-07 21:00,10.3,7.9,9.0,209,2275,1005.67
2005-06-07 22:00,10.4,8.0,9.4,212,2255,1005.67
2005-06-07 23:00,10.9,9.8,12.4,214,2379,1005.30
2005-06-08 00:00,10.6,8.2,9.2,216,2342,1005.18
2005-06-08 01:00,11.2,7.8,8.7,219,2465,1005.24